CAPE
0 0 0 0 0 0 0 0 0 0 0 0 0 0 0 0 0 0 0 0 0 0 0 0 0 0 0 0 0 0 0 0 0 0 0 0 0 1 1 2 1 1 1
0 0 0 0 0 0 0 0 0 0 0 0 0 0 0 0 0 0 0 0 0 0 0 0 0 0 0 0 0 0 0 0 1 1 0 0 0 0 0 0 0 0 0
0 0 0 0 0 0 0 0 0 0 0 0 0 0 0 0 0 0 0 0 0 0 0 0 0 0 0 0 0 0 0 0 0 0 0 0 1 0 0 0 0 0 1
0 0 0 0 0 0 0 0 0 0 0 0 0 0 0 0 0 0 0 0 0 0 0 0 0 0 1 0 0 0 0 0 0 0 0 0 0 0 0 0 0 1 0
0 0 0 0 0 0 0 0 0 0 0 0 0 0 0 0 0 0 0 0 0 0 0 0 1 0 0 0 0 0 0 0 0 0 0 0 1 0 0 0 0 0 0
0 0 0 0 0 0 0 0 0 0 0 0 0 0 0 0 0 0 0 0 0 0 0 0 0 0 0 1 0 1 1 1 0 0 2 1 0 0 5 0 1 2 0
0 0 0 0 0 0 0 0 0 0 0 0 0 0 0 0 0 0 0 0 0 0 0 0 0 0 0 0 0 2 1 1 2 1 0 1 0 0 1 2 2 1 0
0 0 0 0 0 0 0 0 0 0 0 0 0 0 0 0 0 0 0 0 0 0 0 0 0 0 0 0 0 0 0 0 0 0 1 2 1 0 0 0 0 0 0
0 0 0 0 0 0 0 0 0 0 0 0 0 0 0 0 0 0 0 0 0 0 0 0 0 0 0 0 0 0 0 1 0 1 6 1 0 0 0 0 0 0 0
0 0 0 0 0 0 0 0 0 0 0 0 0 0 0 0 0 0 0 0 0 0 0 0 0 0 0 0 1 0 1 0 1 0 0 0 0 0 0 0 0 0 0
0 0 0 0 0 0 0 0 0 0 0 0 0 0 0 0 0 0 0 0 0 0 0 0 0 0 0 2 5 0 0 0 0 0 0 0 0 0 0 0 0 0 0
0 0 0 0 0 0 0 0 0 0 0 0 0 0 0 0 0 0 0 0 0 0 0 0 0 0 0 0 7 2 6 0 0 0 0 0 0 0 0 0 0 0 0
0 0 0 0 0 0 0 0 0 0 0 0 0 0 0 0 0 0 0 0 0 0 0 0 0 2 0 0 0 5 0 0 0 0 1 1 0 0 0 0 0 0 0
0 0 0 0 0 0 0 0 0 0 0 0 0 0 0 0 0 0 0 0 0 0 0 0 0 1 0 0 0 0 0 0 0 0 0 0 0 0 0 0 0 0 0
0 0 0 0 0 0 0 0 0 0 0 0 0 0 0 0 0 0 0 0 0 0 1 0 0 0 0 0 0 0 0 0 0 0 0 0 0 0 0 0 0 0 0
0 0 0 0 0 0 0 0 0 0 0 0 0 0 0 0 0 0 0 0 0 0 0 0 0 0 0 0 0 0 0 0 0 0 0 0 0 0 0 0 0 0 0
0 0 0 0 0 0 0 0 0 0 0 0 0 0 0 0 0 0 0 0 0 0 0 0 0 0 0 0 0 0 0 0 0 0 0 0 0 0 0 0 0 0 0
0 0 0 0 0 0 0 0 0 0 0 0 0 0 0 0 0 0 0 0 0 0 0 0 0 0 0 0 0 0 0 0 0 0 0 0 0 0 0 0 0 0 0
0 0 0 0 0 0 0 0 0 0 0 0 0 0 0 0 0 0 0 0 0 0 0 0 0 0 0 0 0 0 0 0 0 0 0 0 0 0 0 0 0 0 0
0 0 0 0 0 0 0 0 0 0 0 0 0 0 0 0 0 0 0 0 0 0 0 0 0 0 0 0 0 0 0 0 0 0 0 0 0 0 0 0 0 0 0
0 0 0 0 0 0 0 0 0 0 0 0 0 0 0 0 0 0 0 0 0 0 0 0 0 0 0 0 0 0 0 0 0 0 0 0 0 0 0 0 0 0 0
0 0 0 0 0 0 0 0 0 0 0 0 0 0 0 0 0 0 0 0 0 0 0 0 0 0 0 0 0 0 0 0 0 0 0 0 0 0 0 0 0 0 0
0 0 0 0 0 0 0 0 0 0 0 0 0 0 0 0 0 0 0 0 0 0 0 0 0 0 0 0 0 0 0 0 0 0 0 0 0 0 0 0 0 0 0
0 0 0 0 0 0 0 0 0 0 0 0 0 0 0 0 0 0 0 0 0 0 0 0 0 0 0 0 0 0 0 0 0 0 0 0 0 0 0 0 0 0 0
0 0 0 0 0 0 0 0 0 0 0 0 0 0 0 0 0 0 0 0 0 0 0 0 0 0 0 0 0 0 0 0 0 0 0 0 0 0 0 0 0 0 0
0 0 0 0 0 0 0 0 0 0 0 0 0 0 0 0 0 0 0 0 0 0 0 0 0 0 0 0 0 0 0 0 0 0 0 0 0 0 0 0 0 0 0
CIN
0 0 0 0 0 0 0 0 0 0 0 0 0 0 0 0 0 0 0 0 0 0 0 0 0 0 0 0 0 0 0 0 0 0 0 0 0 -1 -1 -1 0 0 0
0 0 0 0 0 0 0 0 0 0 0 0 0 0 0 0 0 0 0 0 0 0 0 0 0 0 0 0 0 0 0 0 0 0 -1 0 0 -1 -2 0 0 0 0
0 0 0 0 0 0 0 0 0 0 0 0 0 0 0 0 0 0 0 0 0 0 0 0 0 0 0 0 0 0 0 0 0 0 0 0 -1 0 0 0 0 0 -1
0 0 0 0 0 0 0 0 0 0 0 0 0 0 0 0 0 0 0 0 0 0 0 0 0 0 0 0 0 0 0 0 -1 0 -1 -1 -1 0 0 0 0 -1 0
0 0 0 0 0 0 0 0 0 0 0 0 0 0 0 0 0 0 0 0 0 0 0 0 0 0 0 0 -1 0 0 -1 -1 0 0 0 -1 0 -1 -1 0 0 0
0 0 0 0 0 0 0 0 0 0 0 0 0 0 0 0 0 0 0 0 0 0 0 0 0 0 0 0 0 0 -1 -1 -3 -2 0 0 0 -1 0 0 0 0 0
0 0 0 0 0 0 0 0 0 0 0 0 0 0 0 0 0 0 0 0 0 0 0 0 0 0 -1 0 0 0 0 -1 -1 -1 0 -1 -1 0 0 0 0 0 0
0 0 0 0 0 0 0 0 0 0 0 0 0 0 0 0 0 0 0 0 0 0 0 0 -1 -1 0 0 0 0 -6 0 -2 -1 -4 -2 -1 0 0 0 0 0 0
0 0 0 0 0 0 0 0 0 0 0 0 0 0 0 0 0 0 0 0 0 0 0 0 -1 -1 -1 0 0 -3 -6 -3 0 -6 -1 0 0 0 0 0 0 0 0
0 0 0 0 0 0 0 0 0 0 0 0 0 0 0 0 0 0 0 0 0 0 0 0 0 -1 -1 -1 -1 0 -1 0 -2 -1 0 0 0 0 0 0 0 0 0
0 0 0 0 0 0 0 0 0 0 0 0 0 0 0 0 0 0 0 0 0 0 0 0 0 0 0 -1 -1 0 -2 -2 0 0 0 0 0 0 0 0 0 0 0
0 0 0 0 0 0 0 0 0 0 0 0 0 0 0 0 0 0 0 0 0 0 0 0 0 0 0 -2 -1 -3 -2 -1 0 0 0 0 0 0 0 0 0 0 0
0 0 0 0 0 0 0 0 0 0 0 0 0 0 0 0 0 0 0 0 0 0 0 0 0 0 0 -1 -9 -4 0 0 0 0 0 0 0 0 0 0 0 0 0
0 0 0 0 0 0 0 0 0 0 0 0 0 0 0 0 0 0 0 0 0 0 0 0 0 -1 0 0 0 0 0 0 0 0 0 0 0 0 0 0 0 0 0
0 0 0 0 0 0 0 0 0 0 0 0 0 0 0 0 0 0 0 0 0 0 -1 0 0 0 0 0 0 0 0 0 0 0 0 0 0 0 0 0 0 0 0
0 0 0 0 0 0 0 0 0 0 0 0 0 0 0 0 0 0 0 0 0 0 0 0 0 0 0 0 0 0 0 0 0 0 0 0 0 0 0 0 0 0 0
0 0 0 0 0 0 0 0 0 0 0 0 0 0 0 0 0 0 0 0 0 0 0 0 0 0 0 0 0 0 0 0 0 0 0 0 0 0 0 0 0 0 0
0 0 0 0 0 0 0 0 0 0 0 0 0 0 0 0 0 0 0 0 0 0 0 0 0 0 0 0 0 0 0 0 0 0 0 0 0 0 0 0 0 0 0
0 0 0 0 0 0 0 0 0 0 0 0 0 0 0 0 0 0 0 0 0 0 0 0 0 0 0 0 0 0 0 0 0 0 0 0 0 0 0 0 0 0 0
0 0 0 0 0 0 0 0 0 0 0 0 0 0 0 0 0 0 0 0 0 0 0 0 0 0 0 0 0 0 0 0 0 0 0 0 0 0 0 0 0 0 0
0 0 0 0 0 0 0 0 0 0 0 0 0 0 0 0 0 0 0 0 0 0 0 0 0 0 0 0 0 0 0 0 0 0 0 0 0 0 0 0 0 0 0
0 0 0 0 0 0 0 0 0 0 0 0 0 0 0 0 0 0 0 0 0 0 0 0 0 0 0 0 0 0 0 0 0 0 0 0 0 0 0 0 0 0 0
0 0 0 0 0 0 0 0 0 0 0 0 0 0 0 0 0 0 0 0 0 0 0 0 0 0 0 0 0 0 0 0 0 0 0 0 0 0 0 0 0 0 0
0 0 0 0 0 0 0 0 0 0 0 0 0 0 0 0 0 0 0 0 0 0 0 0 0 0 0 0 0 0 0 0 0 0 0 0 0 0 0 0 0 0 0
0 0 0 0 0 0 0 0 0 0 0 0 0 0 0 0 0 0 0 0 0 0 0 0 0 0 0 0 0 0 0 0 0 0 0 0 0 0 0 0 0 0 0
0 0 0 0 0 0 0 0 0 0 0 0 0 0 0 0 0 0 0 0 0 0 0 0 0 0 0 0 0 0 0 0 0 0 0 0 0 0 0 0 0 0 0
Wind_Speed
9 8 7 6 5 4 3 2 1 2 4 7 9 12 15 17 19 21 23 25 27 28 30 31 33 33 35 36 37 38 40 42 47 50 50 51 54 56 55 54 53 54 54
7 7 6 6 5 4 3 2 1 2 5 7 9 13 15 17 19 22 24 26 28 29 30 32 34 34 35 36 38 40 40 41 46 55 52 53 53 54 54 55 54 52 51
8 8 7 7 6 5 4 3 2 5 6 9 11 14 16 18 20 23 24 27 28 29 31 33 34 34 36 38 39 41 41 41 43 49 54 50 52 52 55 53 53 52 50
9 9 8 8 7 6 4 4 5 7 9 11 13 15 17 19 21 23 26 27 28 29 31 32 33 34 36 38 40 40 41 44 44 48 50 52 52 52 51 56 57 54 56
10 10 9 8 7 6 5 6 7 8 10 11 14 16 18 20 22 24 26 28 29 30 31 31 33 34 35 37 39 41 42 44 46 49 50 51 52 54 54 50 53 54 52
12 12 10 9 8 8 8 8 8 9 11 13 15 17 19 21 22 24 26 27 27 29 31 32 33 35 36 38 38 39 39 45 47 48 49 50 51 50 47 49 50 51 54
15 14 12 11 11 10 10 10 10 11 13 15 16 18 21 21 22 24 25 25 27 29 30 32 34 35 37 39 39 39 40 40 40 45 47 46 48 45 45 46 44 43 42
18 17 16 15 14 13 12 12 12 14 15 16 18 19 21 22 24 24 24 25 27 29 30 32 35 37 38 39 40 40 40 40 41 40 40 41 39 38 38 38 39 38 37
21 21 19 17 16 15 15 14 14 15 17 17 19 20 23 24 24 23 23 24 27 29 31 32 34 38 38 39 42 44 44 41 39 37 37 35 33 34 34 36 38 40 38
23 22 20 19 17 16 14 14 15 16 17 18 20 22 23 24 24 23 23 26 29 30 31 32 34 37 39 40 42 44 45 45 43 41 38 34 31 31 31 31 32 35 35
23 22 21 19 17 16 15 16 16 17 17 19 22 23 23 23 23 24 25 26 29 31 34 35 36 38 39 40 38 42 42 42 41 39 37 33 31 30 30 27 27 28 29
22 22 20 19 18 16 16 17 16 17 18 23 22 24 23 22 23 24 25 26 28 33 36 37 37 37 39 40 38 39 38 38 38 37 35 32 31 30 29 27 23 23 23
23 22 20 19 19 18 17 16 17 18 22 22 25 24 24 24 24 24 26 28 30 33 36 37 37 38 38 41 38 37 36 37 36 34 32 30 27 27 26 25 23 21 20
23 22 20 19 18 17 17 18 19 20 23 24 23 24 24 25 24 26 28 29 32 35 36 36 36 37 39 40 38 35 34 33 33 31 29 27 25 24 24 24 23 26 22
21 21 20 19 18 17 17 18 20 22 21 21 22 23 24 26 26 27 30 32 34 35 37 37 38 39 41 40 38 36 32 32 33 29 27 26 24 22 21 22 23 25 25
20 20 19 17 17 17 17 21 22 21 19 20 21 22 23 25 27 29 30 32 34 35 37 38 40 40 40 39 40 38 33 32 30 28 26 23 21 20 20 21 23 25 26
19 18 17 17 17 18 20 22 22 21 20 20 21 23 25 27 29 30 31 33 34 35 36 37 38 39 39 38 38 37 34 31 28 26 24 21 20 19 19 20 23 24 25
17 17 17 17 19 21 21 21 22 22 23 23 23 24 26 28 28 29 30 31 34 33 35 36 38 38 38 38 37 36 33 30 28 25 22 20 20 20 19 21 24 26 25
18 18 18 19 21 21 21 21 22 22 23 24 25 26 27 28 27 28 29 31 33 34 34 35 36 37 37 37 36 34 32 30 27 25 22 20 21 21 20 23 26 26 25
18 19 21 22 21 21 21 23 24 25 26 27 28 28 28 28 29 30 30 30 31 33 33 35 36 35 35 35 35 33 32 30 28 25 22 21 22 21 21 26 28 29 27
20 21 21 21 22 22 24 25 26 27 28 28 28 26 27 28 29 29 29 30 31 32 33 34 34 34 34 33 33 32 31 29 27 24 22 22 23 23 22 27 30 29 28
22 23 23 24 24 25 26 27 27 28 28 28 28 27 26 28 28 28 29 29 30 30 30 32 33 33 32 31 31 31 30 29 26 24 22 23 25 24 26 29 30 30 29
25 25 26 27 27 27 28 28 29 28 29 28 27 27 27 28 28 28 29 29 29 30 30 30 31 31 30 28 28 28 28 27 24 23 24 24 26 28 29 30 31 30 28
29 29 30 30 30 30 31 31 29 29 28 27 27 27 27 27 27 28 28 29 29 30 29 29 29 29 30 29 28 26 26 24 23 22 22 24 27 30 30 30 30 29 29
33 33 33 33 32 32 31 30 30 29 28 27 27 26 27 26 27 28 29 29 30 30 30 29 29 29 29 29 28 27 25 23 22 22 22 25 27 30 32 31 30 30 29
35 35 35 34 33 33 32 32 30 30 29 28 27 26 26 27 28 29 29 30 30 31 30 29 30 30 29 29 28 27 25 24 23 22 21 23 26 29 31 32 31 30 30
Wind_Direction
254 241 230 236 244 245 237 239 294 1 1 357 356 355 352 350 350 350 349 347 345 343 344 344 342 342 340 340 341 340 338 335 329 330 333 335 336 336 336 336 336 335 334
238 226 224 224 218 213 217 215 300 345 349 350 352 347 347 348 348 346 344 344 342 341 342 341 340 341 341 341 339 338 337 337 333 329 334 335 336 337 336 336 337 337 336
235 224 221 214 202 209 226 254 300 321 332 336 339 339 343 344 343 342 342 341 340 341 340 340 340 340 340 340 339 339 339 338 337 333 333 336 336 338 337 338 338 338 340
227 218 207 210 214 222 240 273 300 318 325 331 335 337 340 340 339 339 339 340 339 340 340 341 341 341 340 340 340 340 340 338 338 336 336 336 338 339 340 339 338 340 339
222 221 221 223 231 237 250 275 298 312 323 331 332 335 335 335 337 338 339 339 338 339 341 342 342 342 343 341 341 340 340 339 338 337 337 338 339 340 340 341 340 341 344
231 230 228 229 234 244 259 275 291 304 315 322 325 328 330 333 336 338 338 338 340 341 341 342 343 342 342 342 342 341 341 339 338 338 337 337 339 340 342 343 343 344 344
234 235 237 240 246 254 266 278 287 298 310 316 320 324 328 330 335 335 338 340 340 341 342 342 343 344 342 342 342 342 342 342 340 339 337 339 339 342 344 344 347 348 349
236 238 241 246 251 258 265 273 285 298 306 312 317 323 326 330 331 332 337 339 339 340 341 342 343 343 342 341 341 341 341 342 342 341 339 340 342 345 347 349 349 349 352
239 243 245 246 250 256 263 272 285 295 303 309 316 321 324 327 328 330 334 336 338 339 341 342 341 341 342 342 341 339 340 341 343 344 344 344 347 349 352 351 352 352 353
239 241 245 248 251 256 262 271 287 295 302 309 316 321 323 324 327 330 331 333 333 336 339 341 342 341 341 340 340 339 338 340 342 344 345 347 349 351 353 355 356 354 356
244 244 245 248 251 257 265 279 286 293 301 309 316 319 322 323 326 329 331 331 332 335 337 338 340 339 340 340 340 340 338 341 342 344 346 347 349 351 353 356 359 1 1
241 241 243 247 254 260 268 279 287 293 300 309 312 316 319 323 326 328 331 332 332 333 334 336 337 338 339 339 339 339 341 341 342 344 345 346 348 350 352 354 357 2 5
236 237 241 248 255 262 268 277 286 294 302 304 308 310 315 321 324 327 329 330 331 332 332 334 335 336 338 338 337 337 340 342 342 342 342 344 346 348 350 353 357 359 3
234 237 241 246 254 264 274 281 288 294 300 302 305 310 314 317 320 323 326 328 328 330 332 333 337 337 336 337 338 338 339 341 342 340 340 341 344 347 349 352 352 350 353
232 235 240 249 255 264 276 283 290 297 298 299 305 310 312 315 319 322 324 325 327 329 331 333 335 336 337 337 338 339 338 340 341 341 339 340 341 345 347 349 348 346 346
232 236 240 246 256 265 274 289 296 296 297 302 308 311 315 317 320 321 324 326 329 330 330 331 332 334 335 336 337 337 337 338 339 339 338 339 339 342 342 343 342 341 341
231 234 240 248 258 268 280 283 285 294 299 303 308 312 314 316 319 321 324 326 328 331 330 331 333 334 335 336 337 337 336 337 338 337 336 337 339 338 338 338 336 335 337
237 237 242 254 266 276 279 281 285 287 291 298 305 309 312 315 319 321 324 326 327 330 331 331 332 334 335 336 337 337 337 337 336 334 333 334 335 334 333 331 329 328 331
241 246 254 267 275 276 279 283 286 289 291 296 301 306 310 314 317 321 324 324 325 327 330 331 333 334 335 336 337 337 337 336 336 334 331 330 330 330 328 325 321 322 326
247 255 265 271 272 275 280 283 287 289 291 293 297 302 307 312 312 316 320 323 324 327 329 331 333 334 335 336 337 337 337 336 335 333 329 326 325 327 325 318 314 316 321
258 264 266 269 271 276 280 284 287 288 290 292 296 300 304 308 311 314 317 320 323 326 328 330 332 334 335 336 336 336 337 336 335 333 329 323 319 321 322 313 309 313 317
265 267 267 269 274 278 282 286 288 289 291 293 296 300 303 308 310 313 316 319 322 326 328 330 331 333 334 335 336 336 335 335 334 333 328 321 315 315 314 308 308 310 312
269 268 269 274 277 281 284 286 288 290 292 293 295 298 302 305 309 312 315 319 322 325 328 329 330 332 333 334 335 334 333 332 331 330 325 320 313 309 307 305 305 308 310
268 269 272 274 277 280 283 285 287 290 292 293 294 297 301 304 308 311 314 318 321 323 326 327 328 329 330 331 332 333 331 331 329 326 322 317 311 306 304 305 305 307 308
268 270 273 274 276 279 282 283 285 289 290 291 294 297 300 303 306 310 313 316 319 321 324 325 327 327 328 329 329 330 329 328 325 323 319 314 309 305 302 303 303 304 305
269 271 273 274 276 280 280 282 284 287 289 291 293 296 299 302 306 309 312 315 317 319 321 323 324 325 326 327 328 328 327 325 322 319 316 314 310 306 303 301 301 302 302